When you browse on this site, cookies collect data to enhance your experience and personalize the content and advertising you see.
Visit our Privacy Policy to learn more. By continuing to use the site, you agree to this use of cookies and data.
  • In Italy
  • List of Countries
  • For 7 days
  • Water Temperature
  • Satellite Maps
  • Weather Map
  • Weather Widgets
  • user-avatar
    Login

    Hourly Weather Mons

    Today, 25 May, Saturday

    Time Temperature Precipitation Wind Pressure Humidity
    00:00 +10°C° 0 mm 1 mps 760 mmHg 81%
    01:00 +10°C° 0 mm 1 mps 760 mmHg 81%
    02:00 +9°C° 0 mm 0 mps 760 mmHg 82%
    03:00 +9°C° 0 mm 0 mps 760 mmHg 83%
    04:00 +10°C° 0 mm 0 mps 760 mmHg 80%
    05:00 +11°C° 0 mm 0 mps 760 mmHg 78%
    06:00 +12°C° 0 mm 0 mps 760 mmHg 76%
    07:00 +13°C° 0.1 mm 0 mps 760 mmHg 76%
    08:00 +15°C° 0.1 mm 1 mps 760 mmHg 77%
    09:00 +16°C° 0.1 mm 1 mps 760 mmHg 77%
    10:00 +16°C° 0.3 mm 1 mps 760 mmHg 78%
    11:00 +16°C° 0.3 mm 1 mps 760 mmHg 79%
    12:00 +18°C° 0.3 mm 1 mps 760 mmHg 80%
    13:00 +19°C° 0.1 mm 1 mps 760 mmHg 75%
    14:00 +20°C° 0.1 mm 1 mps 760 mmHg 70%
    15:00 +21°C° 0.1 mm 1 mps 759 mmHg 64%
    16:00 +20°C° 0.7 mm 1 mps 759 mmHg 71%
    17:00 +18°C° 0.7 mm 2 mps 759 mmHg 77%
    18:00 +18°C° 0.7 mm 2 mps 759 mmHg 84%
    19:00 +16°C° 0 mm 2 mps 760 mmHg 85%
    20:00 +14°C° 0 mm 1 mps 760 mmHg 87%
    21:00 +13°C° 0 mm 1 mps 760 mmHg 89%
    22:00 +12°C° 0 mm 1 mps 760 mmHg 90%
    23:00 +12°C° 0 mm 1 mps 760 mmHg 91%

    Tomorrow, 26 May, Sunday

    Time Temperature Precipitation Wind Pressure Humidity
    00:00 +10°C° 0 mm 2 mps 760 mmHg 92%
    01:00 +12°C° 0 mm 2 mps 760 mmHg 93%
    02:00 +12°C° 0 mm 2 mps 759 mmHg 95%
    03:00 +12°C° 0 mm 2 mps 759 mmHg 97%
    04:00 +12°C° 0 mm 3 mps 759 mmHg 96%
    05:00 +12°C° 0 mm 3 mps 759 mmHg 96%
    06:00 +13°C° 0 mm 4 mps 759 mmHg 96%
    07:00 +14°C° 0 mm 4 mps 759 mmHg 93%
    08:00 +15°C° 0 mm 4 mps 759 mmHg 91%
    09:00 +17°C° 0 mm 4 mps 759 mmHg 88%
    10:00 +17°C° 0.1 mm 5 mps 758 mmHg 84%
    11:00 +19°C° 0.1 mm 5 mps 758 mmHg 80%
    12:00 +20°C° 0.1 mm 5 mps 758 mmHg 76%
    13:00 +20°C° 0.2 mm 5 mps 758 mmHg 77%
    14:00 +20°C° 0.2 mm 6 mps 757 mmHg 77%
    15:00 +20°C° 0.2 mm 6 mps 757 mmHg 78%
    16:00 +19°C° 0 mm 6 mps 757 mmHg 80%
    17:00 +19°C° 0 mm 5 mps 757 mmHg 82%
    18:00 +18°C° 0 mm 4 mps 756 mmHg 84%
    19:00 +17°C° 0 mm 4 mps 756 mmHg 88%
    20:00 +15°C° 0 mm 4 mps 756 mmHg 91%
    21:00 +15°C° 0 mm 4 mps 756 mmHg 94%
    22:00 +15°C° 0.4 mm 4 mps 756 mmHg 95%
    23:00 +15°C° 0.4 mm 5 mps 756 mmHg 95%

    Day after tomorrow, 27 May, Monday

    Time Temperature Precipitation Wind Pressure Humidity
    00:00 +15°C° 0.4 mm 5 mps 756 mmHg 95%
    01:00 +14°C° 0.3 mm 4 mps 756 mmHg 95%
    02:00 +14°C° 0.3 mm 4 mps 756 mmHg 95%
    03:00 +14°C° 0.3 mm 4 mps 755 mmHg 96%
    04:00 +14°C° 0 mm 3 mps 756 mmHg 93%
    05:00 +13°C° 0 mm 3 mps 756 mmHg 91%
    06:00 +13°C° 0 mm 3 mps 756 mmHg 88%
    07:00 +14°C° 0 mm 3 mps 756 mmHg 82%
    08:00 +16°C° 0 mm 3 mps 756 mmHg 75%
    09:00 +17°C° 0 mm 3 mps 756 mmHg 69%
    10:00 +17°C° 0.1 mm 4 mps 756 mmHg 68%
    11:00 +18°C° 0.1 mm 4 mps 756 mmHg 67%
    12:00 +17°C° 0.1 mm 5 mps 756 mmHg 65%
    13:00 +17°C° 0.1 mm 5 mps 756 mmHg 65%
    14:00 +17°C° 0.1 mm 6 mps 756 mmHg 64%
    15:00 +17°C° 0.1 mm 6 mps 756 mmHg 63%
    16:00 +16°C° 0.1 mm 5 mps 756 mmHg 68%
    17:00 +15°C° 0.1 mm 5 mps 755 mmHg 74%
    18:00 +14°C° 0.1 mm 4 mps 755 mmHg 79%
    19:00 +13°C° 0.1 mm 4 mps 756 mmHg 83%
    20:00 +12°C° 0.1 mm 4 mps 756 mmHg 87%
    21:00 +10°C° 0.1 mm 3 mps 756 mmHg 91%
    22:00 +10°C° 0.1 mm 3 mps 756 mmHg 91%
    23:00 +10°C° 0.1 mm 3 mps 756 mmHg 92%

    28 May, Tuesday

    Time Temperature Precipitation Wind Pressure Humidity
    00:00 +10°C° 0.1 mm 3 mps 756 mmHg 93%
    01:00 +10°C° 0 mm 3 mps 756 mmHg 94%
    02:00 +10°C° 0 mm 3 mps 755 mmHg 94%
    03:00 +9°C° 0 mm 2 mps 755 mmHg 95%
    04:00 +10°C° 0 mm 3 mps 756 mmHg 93%
    05:00 +10°C° 0 mm 3 mps 756 mmHg 90%
    06:00 +10°C° 0 mm 4 mps 756 mmHg 88%
    07:00 +10°C° 0 mm 4 mps 757 mmHg 83%
    08:00 +11°C° 0 mm 4 mps 757 mmHg 77%
    09:00 +12°C° 0 mm 4 mps 757 mmHg 71%
    10:00 +13°C° 0.1 mm 4 mps 758 mmHg 68%
    11:00 +14°C° 0.1 mm 5 mps 758 mmHg 64%
    12:00 +14°C° 0.1 mm 5 mps 758 mmHg 61%
    13:00 +14°C° 0.1 mm 5 mps 758 mmHg 60%
    14:00 +14°C° 0.1 mm 6 mps 759 mmHg 59%
    15:00 +14°C° 0.1 mm 6 mps 759 mmHg 57%
    16:00 +13°C° 0 mm 5 mps 759 mmHg 61%
    17:00 +13°C° 0 mm 5 mps 760 mmHg 65%
    18:00 +12°C° 0 mm 4 mps 760 mmHg 69%
    19:00 +10°C° 0 mm 4 mps 761 mmHg 73%
    20:00 +8°C° 0 mm 3 mps 761 mmHg 76%
    21:00 +7°C° 0 mm 3 mps 762 mmHg 79%
    22:00 +6°C° 0 mm 2 mps 762 mmHg 82%
    23:00 +6°C° 0 mm 2 mps 763 mmHg 85%

    29 May, Wednesday

    Time Temperature Precipitation Wind Pressure Humidity
    00:00 +5°C° 0 mm 2 mps 763 mmHg 88%
    01:00 +6°C° 0 mm 1 mps 763 mmHg 88%
    02:00 +6°C° 0 mm 1 mps 763 mmHg 89%
    03:00 +5°C° 0 mm 1 mps 763 mmHg 90%
    04:00 +7°C° 0 mm 1 mps 763 mmHg 86%
    05:00 +8°C° 0 mm 1 mps 764 mmHg 82%
    06:00 +9°C° 0 mm 1 mps 764 mmHg 78%
    07:00 +11°C° 0 mm 1 mps 764 mmHg 72%
    08:00 +13°C° 0 mm 1 mps 764 mmHg 67%
    09:00 +14°C° 0 mm 2 mps 764 mmHg 61%
    10:00 +15°C° 0.1 mm 2 mps 764 mmHg 62%
    11:00 +16°C° 0.1 mm 3 mps 764 mmHg 63%
    12:00 +17°C° 0.1 mm 3 mps 764 mmHg 64%
    13:00 +17°C° 0.2 mm 3 mps 764 mmHg 65%
    14:00 +17°C° 0.2 mm 3 mps 764 mmHg 65%
    15:00 +17°C° 0.2 mm 3 mps 764 mmHg 66%
    16:00 +16°C° 0 mm 3 mps 764 mmHg 66%
    17:00 +16°C° 0 mm 3 mps 764 mmHg 67%
    18:00 +15°C° 0 mm 2 mps 764 mmHg 67%
    19:00 +13°C° 0 mm 2 mps 765 mmHg 70%
    20:00 +11°C° 0 mm 1 mps 765 mmHg 73%
    21:00 +9°C° 0 mm 1 mps 765 mmHg 76%
    22:00 +9°C° 0 mm 1 mps 765 mmHg 79%
    23:00 +7°C° 0 mm 2 mps 765 mmHg 82%

    30 May, Thursday

    Time Temperature Precipitation Wind Pressure Humidity
    00:00 +7°C° 0 mm 3 mps 765 mmHg 85%
    01:00 +7°C° 0 mm 3 mps 764 mmHg 84%
    02:00 +6°C° 0 mm 4 mps 764 mmHg 83%
    03:00 +6°C° 0 mm 4 mps 764 mmHg 82%
    04:00 +7°C° 0 mm 5 mps 763 mmHg 82%
    05:00 +8°C° 0 mm 6 mps 763 mmHg 81%
    06:00 +9°C° 0 mm 7 mps 762 mmHg 81%
    07:00 +10°C° 0 mm 7 mps 762 mmHg 81%
    08:00 +11°C° 0 mm 7 mps 762 mmHg 80%
    09:00 +13°C° 0 mm 8 mps 761 mmHg 79%
    10:00 +12°C° 0.3 mm 8 mps 761 mmHg 83%
    11:00 +12°C° 0.3 mm 8 mps 760 mmHg 87%
    12:00 +12°C° 0.3 mm 7 mps 760 mmHg 91%
    13:00 +12°C° 0.2 mm 7 mps 760 mmHg 91%
    14:00 +14°C° 0.2 mm 7 mps 759 mmHg 91%
    15:00 +14°C° 0.2 mm 7 mps 759 mmHg 91%
    16:00 +14°C° 0.4 mm 7 mps 758 mmHg 92%
    17:00 +12°C° 0.4 mm 7 mps 758 mmHg 93%
    18:00 +12°C° 0.4 mm 7 mps 757 mmHg 94%
    19:00 +12°C° 0.1 mm 7 mps 757 mmHg 94%
    20:00 +12°C° 0.1 mm 7 mps 757 mmHg 94%
    21:00 +13°C° 0.1 mm 6 mps 756 mmHg 94%
    22:00 +11°C° 0.3 mm 7 mps 756 mmHg 94%
    23:00 +10°C° 0.3 mm 7 mps 757 mmHg 93%
    Show more